Theta_e
298 298 299 299 299 295 298 299 297 298 300 300 299 298 297 298 297 295 301 299 302 305 306 315 320 322 321 320 321 324 325 327 328 328 329 330 332 335 338 340 340 342 343 344 344 345 343 343 344 345 348 350 350 350 351 352 353 355 354 355 355 355 357
298 300 299 299 299 299 299 297 298 301 302 301 300 294 296 295 291 294 299 297 300 299 296 313 317 317 319 318 318 321 324 326 326 326 328 329 330 334 337 340 342 343 343 343 344 344 344 343 343 345 349 350 351 351 350 351 352 353 353 354 354 355 356
297 300 299 298 301 301 299 297 300 297 295 295 298 298 290 290 290 293 296 297 298 300 301 309 312 314 317 318 318 318 319 321 323 325 327 329 331 332 334 338 340 341 342 343 344 344 344 344 345 346 347 347 349 349 350 350 350 351 352 352 353 355 355
295 298 298 292 294 300 299 300 299 298 299 300 298 298 298 299 292 293 293 297 293 300 302 309 313 315 317 317 318 317 318 320 321 324 326 328 329 330 332 335 338 340 341 343 343 343 343 343 344 344 345 346 346 347 349 349 350 352 353 352 353 353 354
296 292 294 291 293 292 296 297 295 297 297 298 300 298 297 296 295 295 294 292 294 299 305 311 314 316 318 318 318 318 318 319 321 322 323 327 330 331 332 334 339 340 342 342 343 344 343 344 345 344 344 344 345 346 346 348 349 350 350 351 352 354 354
291 291 294 294 294 295 294 294 291 292 293 296 294 293 297 295 296 292 295 291 294 299 308 313 316 317 318 319 319 318 318 319 320 320 323 325 327 331 332 334 337 341 343 343 343 343 343 343 343 343 343 344 344 344 345 346 347 348 348 349 352 353 354
291 293 295 297 296 296 295 295 292 295 294 294 296 291 293 296 295 296 300 294 293 302 310 316 316 318 318 319 319 318 319 320 321 321 322 324 327 329 331 332 335 337 342 344 344 343 343 343 343 343 343 343 343 344 345 346 346 347 348 349 351 354 353
294 295 296 297 297 296 295 295 296 295 292 292 292 293 297 296 294 296 297 295 293 302 311 317 317 318 318 319 318 318 319 320 321 321 321 322 324 327 330 332 334 335 338 340 343 346 345 344 344 343 343 344 343 344 344 345 345 346 348 349 350 352 352
290 293 294 293 296 296 293 292 294 295 295 295 294 297 299 294 292 292 296 292 294 299 312 316 316 316 316 316 317 318 318 319 320 321 322 322 323 325 326 328 331 334 335 336 339 342 346 348 343 344 344 343 343 343 344 344 345 346 348 349 349 350 350
283 283 285 287 290 291 292 293 293 294 294 293 294 293 295 291 293 293 294 293 296 301 311 313 314 314 315 316 316 318 318 319 319 321 322 322 322 323 325 326 327 330 333 336 338 339 341 343 346 346 346 344 343 344 344 345 344 346 347 348 349 349 349
289 289 289 290 294 292 289 291 292 292 294 295 295 295 294 291 293 293 293 293 294 298 307 308 311 313 312 313 315 315 316 318 319 321 322 322 322 322 323 325 326 328 330 333 336 339 340 341 343 347 344 344 343 345 345 344 345 346 347 348 349 349 349
290 291 291 291 292 290 290 290 290 292 292 293 293 292 291 294 292 290 294 297 293 298 305 308 310 311 312 312 313 314 315 317 318 319 321 324 322 322 323 324 325 325 328 331 333 336 338 340 341 344 346 349 345 346 345 345 345 345 346 348 348 349 349
291 291 292 292 292 291 291 291 290 290 292 292 291 291 292 293 292 291 294 296 296 302 305 308 310 311 311 312 313 314 315 316 318 319 318 319 320 320 320 322 323 325 326 327 330 332 335 338 340 340 342 347 349 353 348 347 345 345 347 347 348 348 349
291 291 292 292 291 291 291 290 291 291 291 291 291 292 293 292 293 294 296 299 301 304 306 308 311 312 313 313 316 315 314 314 316 317 317 317 318 319 319 320 322 323 324 327 328 331 333 335 337 338 340 343 346 349 351 347 347 346 347 348 349 347 347
289 291 292 292 291 291 289 290 291 290 290 291 292 292 294 296 294 300 302 300 300 305 308 310 313 314 314 314 313 313 313 314 314 314 315 316 317 318 319 320 321 323 324 325 327 328 330 332 335 337 339 341 344 348 350 352 352 348 348 349 349 348 348
287 289 290 290 292 291 289 289 291 291 290 290 292 292 294 295 296 300 299 299 300 305 309 310 312 312 312 311 311 312 313 314 314 313 313 314 316 317 318 320 321 321 322 324 325 327 329 330 332 332 335 339 342 344 348 351 353 355 348 347 347 350 350
286 290 290 290 290 288 286 288 290 292 292 293 294 295 299 302 303 297 294 298 306 307 308 306 307 309 311 311 311 312 313 314 313 314 314 315 315 316 317 318 320 320 321 323 325 326 329 330 331 332 333 335 337 340 344 350 355 356 355 348 349 350 350
287 289 290 291 287 281 283 293 294 295 293 294 291 293 298 304 305 303 306 306 308 308 307 305 305 306 309 311 312 314 312 312 313 314 315 316 316 317 317 318 318 320 322 323 325 327 329 331 331 331 332 332 334 338 343 348 354 355 356 356 351 350 352
287 290 290 286 280 282 292 295 298 300 299 297 295 295 301 304 306 305 305 306 307 308 308 307 308 309 310 313 312 312 312 313 313 312 313 314 316 317 317 317 317 320 322 323 325 326 329 331 331 330 329 330 332 334 339 345 346 353 355 356 354 352 353
291 288 286 279 281 291 293 295 299 303 301 301 300 296 301 304 304 304 302 305 306 307 308 308 310 310 310 312 315 313 312 313 313 312 312 313 314 316 318 318 319 320 322 323 324 325 330 330 329 329 328 329 330 332 339 342 343 347 348 354 356 357 354
284 287 286 286 291 290 293 294 296 300 297 297 295 291 298 303 303 303 303 304 305 306 307 308 309 309 311 310 313 314 312 312 313 313 313 314 315 316 318 319 320 321 323 324 326 327 327 328 327 327 328 329 329 332 336 338 341 345 344 344 346 354 357
290 286 285 286 285 282 289 297 301 302 302 303 302 297 294 301 302 304 303 302 302 303 305 306 307 308 309 306 309 311 311 312 313 314 314 315 315 316 317 320 321 322 323 324 326 327 327 326 327 328 328 328 329 332 333 336 338 340 339 337 339 344 351
289 287 284 283 281 286 295 297 299 302 303 303 304 295 290 299 301 302 303 301 302 302 303 304 305 304 301 302 307 310 310 311 313 312 314 314 315 316 317 318 319 321 323 324 325 326 326 324 325 327 327 328 329 330 331 332 334 335 333 332 335 339 343
289 288 284 283 288 286 295 300 300 301 303 301 298 285 287 298 300 301 303 301 302 303 304 304 303 301 298 301 306 310 309 311 312 313 313 314 315 316 317 318 320 322 324 324 323 323 324 325 326 326 326 326 329 329 329 330 330 330 329 330 331 335 339
289 287 287 289 290 296 298 300 301 302 303 299 288 283 295 301 301 302 303 303 303 304 303 304 300 304 305 306 308 309 309 309 310 313 314 314 315 315 316 317 321 321 322 322 322 323 324 326 325 325 325 326 327 328 328 328 328 328 328 330 332 333 335
288 289 286 287 291 297 302 304 303 303 297 287 286 299 300 302 302 304 304 303 304 304 304 304 304 305 306 307 307 307 307 307 309 311 312 312 314 315 317 318 319 319 320 322 323 322 324 323 325 324 324 325 327 327 327 327 327 327 328 329 331 332 333
289 288 286 285 281 296 302 302 300 303 292 294 300 301 302 303 303 303 304 304 304 304 303 304 304 304 305 305 305 306 306 307 308 309 310 311 311 312 314 316 317 317 319 320 321 322 322 322 324 325 324 324 325 327 326 327 328 328 329 329 329 330 332
286 285 284 285 293 301 304 300 295 300 301 303 303 301 300 303 303 303 304 304 304 304 303 302 303 303 303 304 305 306 306 307 308 309 310 311 312 312 313 314 316 317 317 320 321 323 323 324 325 325 324 323 325 326 326 327 328 329 329 328 329 329 330
291 290 293 299 299 302 304 304 304 306 306 305 305 303 302 301 303 305 303 303 303 303 303 303 303 302 303 304 305 304 305 306 307 308 309 310 311 311 311 313 316 317 316 317 319 322 323 324 325 325 324 323 324 324 325 326 327 328 328 328 327 328 329
298 299 299 300 300 301 303 304 305 304 304 305 305 303 302 304 304 304 302 303 302 303 303 302 302 302 303 304 304 305 306 306 307 309 309 310 311 311 312 313 315 316 316 317 318 320 322 325 324 325 323 323 322 324 326 326 327 327 327 326 326 327 329
292 289 302 298 299 301 302 303 304 305 305 305 305 304 303 304 304 303 303 303 303 303 303 303 302 303 304 303 304 305 305 306 307 307 308 309 310 311 311 313 315 315 316 315 317 319 320 323 324 323 322 323 323 324 325 324 325 325 326 325 325 326 327
292 293 299 300 301 302 303 303 303 302 304 304 305 305 305 305 305 303 303 304 303 304 302 303 303 303 303 303 303 304 305 305 306 306 307 308 310 311 312 313 314 314 315 316 316 318 320 323 324 324 322 322 323 323 323 323 323 323 324 325 324 324 325
296 299 300 300 300 300 300 301 303 304 305 304 304 304 304 304 303 303 304 304 303 303 303 304 304 302 303 304 304 304 304 305 306 306 307 309 310 311 311 313 314 313 314 315 317 318 319 322 324 323 321 322 322 322 322 322 322 321 322 324 324 324 325
292 293 297 301 294 294 300 302 303 304 305 304 303 304 303 303 303 303 302 303 304 304 304 304 303 302 303 304 304 304 304 305 306 307 307 308 309 310 312 313 314 314 315 316 317 318 320 323 324 323 321 321 322 321 321 321 321 320 321 321 322 323 325
292 299 302 303 301 301 302 303 306 306 305 304 303 302 302 303 303 304 303 302 302 303 304 305 304 303 303 303 304 303 304 305 306 307 308 307 308 309 311 312 312 313 315 316 317 318 320 323 324 322 320 320 320 320 320 320 320 320 320 320 320 321 323
302 304 304 304 302 299 303 304 305 305 306 304 303 303 304 304 303 303 303 303 302 302 303 304 304 304 303 303 303 303 304 305 306 306 308 308 309 310 312 312 313 314 315 316 317 319 321 323 323 322 320 319 319 319 319 318 319 319 319 319 319 320 321
299 303 304 304 303 304 305 305 305 306 306 305 303 303 304 304 304 304 303 304 304 303 302 302 303 304 304 304 304 304 304 305 307 307 309 310 309 310 311 312 313 314 315 317 319 321 322 322 322 321 319 319 319 319 318 317 317 317 317 318 318 319 320
Wind_Speed
1 8 5 3 3 3 4 4 4 2 3 2 5 3 4 3 3 5 2 5 5 6 3 13 11 10 14 16 18 19 18 17 16 14 14 12 12 12 10 16 16 18 17 17 17 16 16 16 17 17 17 16 17 15 15 16 16 14 16 16 15 14 13
2 5 4 2 6 2 1 4 4 3 1 3 2 4 3 6 10 4 2 5 5 4 3 11 14 15 15 17 17 17 18 19 19 15 14 13 13 12 12 13 15 17 18 18 18 17 18 19 20 19 17 17 16 17 18 18 17 17 16 15 15 13 14
5 9 2 4 4 9 4 4 2 4 5 7 1 1 8 9 9 5 5 7 8 7 6 10 15 15 15 15 15 17 20 19 18 18 18 16 16 13 13 11 10 14 15 16 17 18 19 19 18 18 17 17 16 16 17 19 20 19 19 16 15 13 14
4 5 6 3 8 3 3 3 3 2 3 2 5 1 2 3 5 6 4 3 4 6 6 9 11 12 12 13 12 15 16 16 15 16 17 17 15 14 13 12 10 11 14 16 17 16 17 18 17 17 18 16 18 18 17 17 16 16 16 17 16 16 16
4 4 5 6 7 6 4 2 3 3 4 2 3 3 2 2 3 5 6 4 4 5 5 8 10 10 10 10 12 12 12 15 16 14 15 15 17 15 14 14 10 10 12 14 14 15 16 15 15 16 17 19 18 17 17 18 17 18 18 17 15 14 13
8 6 2 3 8 10 6 4 5 4 2 4 7 4 2 0 2 2 7 6 6 5 5 6 8 9 9 9 10 9 12 13 13 15 16 15 16 19 17 15 16 7 10 12 13 13 12 13 14 16 16 16 18 18 17 18 17 17 18 17 15 14 13
4 4 5 2 3 3 9 8 6 4 2 2 3 4 4 2 3 2 3 7 5 5 6 7 7 7 8 10 9 10 11 11 12 13 16 17 16 17 18 18 16 16 16 5 12 14 14 16 15 17 16 16 17 19 18 17 17 18 18 17 15 14 14
2 5 3 2 5 1 2 8 8 7 5 4 3 3 3 2 3 3 4 2 7 5 6 7 6 6 8 7 9 11 9 10 11 13 15 17 18 18 18 18 16 16 14 16 17 8 9 12 12 15 14 15 15 16 17 17 19 19 17 15 15 14 14
2 3 4 2 1 4 5 4 7 7 7 4 1 1 1 2 2 3 2 6 6 5 5 6 6 7 9 10 11 10 10 11 12 12 12 14 16 17 20 19 19 19 20 20 15 13 14 5 11 12 13 14 15 15 15 17 17 17 16 14 14 15 16
5 6 6 4 3 3 2 3 7 9 11 10 3 2 0 1 2 2 1 7 6 6 5 8 9 9 9 10 10 10 10 11 12 12 12 12 14 16 17 19 20 18 17 17 17 17 13 14 8 8 10 13 15 14 16 16 15 15 15 14 14 14 15
1 4 4 2 2 1 1 4 6 8 8 7 3 1 1 2 2 2 5 4 3 5 8 8 10 10 10 11 11 12 12 13 12 12 12 12 12 13 15 15 15 16 18 19 19 17 16 15 14 12 5 12 13 13 15 16 15 15 15 14 14 14 15
6 4 5 2 2 3 3 4 5 5 6 7 7 3 3 2 2 3 2 3 5 5 7 8 9 9 10 10 10 11 11 11 11 13 13 15 16 17 16 16 16 16 15 16 18 18 18 15 15 13 13 10 5 11 13 15 15 15 13 14 14 14 14
5 3 4 4 3 4 2 3 3 5 5 5 4 4 2 1 2 3 3 2 2 5 6 7 7 8 8 8 10 10 9 10 13 14 16 17 17 17 17 15 14 15 14 13 15 17 16 18 16 15 13 12 11 8 8 12 14 15 14 14 14 15 14
5 5 4 4 5 4 3 3 3 3 3 3 3 2 2 2 0 2 2 6 6 4 6 5 6 6 6 6 6 8 12 14 13 14 15 15 16 16 15 14 14 12 12 12 13 14 15 17 17 17 14 13 12 9 9 6 12 12 12 13 14 15 15
3 2 3 3 5 5 5 5 4 1 1 0 0 1 2 1 2 2 1 6 5 4 4 4 5 5 6 7 9 11 11 13 13 14 14 15 16 15 15 15 14 13 13 12 12 13 14 15 15 14 14 13 12 12 9 9 6 11 12 11 12 14 15
3 1 2 3 4 4 3 2 4 5 3 4 3 2 2 1 1 1 1 3 4 2 3 3 4 5 7 9 9 9 10 12 13 13 13 14 15 15 15 15 14 14 14 13 13 13 13 13 13 13 13 13 13 13 13 11 8 8 11 13 14 13 13
2 3 2 3 4 2 3 3 2 2 2 2 0 1 1 1 1 1 2 1 4 3 2 3 4 5 6 7 8 8 8 9 11 12 12 12 13 14 14 14 14 14 14 13 13 12 11 11 11 12 11 11 12 12 13 12 9 8 8 11 12 12 13
4 2 2 3 2 4 1 4 2 2 3 1 2 2 2 2 1 1 3 3 4 2 2 3 4 5 5 5 5 5 7 8 10 11 12 12 12 13 13 13 13 13 13 13 12 12 11 11 11 10 9 10 10 11 10 11 11 9 8 8 11 13 12
2 1 4 3 3 2 4 1 1 2 4 3 4 0 1 2 2 2 2 3 2 2 2 2 4 5 6 4 2 7 8 9 9 11 12 13 13 13 14 14 14 13 15 15 14 14 13 13 11 10 10 10 10 10 11 11 12 12 9 7 8 10 11
2 1 2 2 1 3 4 1 0 1 1 2 2 2 4 3 0 1 1 1 1 2 2 4 5 7 8 6 6 4 9 9 9 10 10 13 13 13 12 14 14 13 14 15 15 14 13 12 12 10 10 10 10 10 10 10 9 10 12 11 7 7 9
1 0 1 2 3 3 4 3 5 6 4 3 2 4 4 2 1 2 1 1 2 3 4 5 6 9 4 4 5 0 8 10 11 10 10 11 12 12 12 12 13 12 12 13 13 12 12 12 12 11 11 9 9 8 10 9 9 8 8 9 11 10 5
1 2 2 2 2 3 5 3 5 1 2 2 4 2 3 4 2 1 2 2 4 4 5 6 7 8 4 4 4 4 10 11 12 11 10 10 11 11 13 12 11 12 11 12 12 12 13 12 12 11 12 11 8 7 8 8 9 8 9 9 10 10 8
3 3 3 2 2 1 4 8 6 4 2 3 4 1 5 6 1 2 1 3 4 5 6 7 7 5 4 3 1 6 11 12 11 12 11 11 11 11 11 13 13 12 11 11 12 12 12 12 13 12 12 11 8 8 8 9 9 8 9 10 11 11 11
4 4 3 3 4 2 4 8 6 5 3 4 3 7 2 7 3 2 1 2 3 4 4 5 5 3 5 5 5 8 11 12 12 11 13 13 12 11 12 11 12 12 11 11 12 13 13 13 12 13 12 11 9 8 9 8 8 9 9 9 10 10 10
5 6 6 4 5 4 3 8 8 6 5 3 5 7 3 6 4 3 2 3 2 3 5 3 5 4 4 6 8 10 9 10 12 12 12 12 13 13 12 12 12 11 11 10 11 11 10 12 11 11 11 11 10 8 8 8 9 9 10 9 9 9 10
7 6 7 6 7 4 6 5 10 7 5 5 8 3 3 3 3 4 4 3 3 3 5 6 6 7 7 8 9 10 9 10 11 11 13 14 14 13 12 12 11 10 11 11 12 11 10 11 11 10 10 11 11 10 7 8 10 10 10 11 10 10 10
2 1 5 4 5 2 8 13 5 5 7 1 4 3 2 2 2 2 3 3 3 4 6 7 9 10 10 10 10 10 11 11 10 11 12 14 14 14 14 13 12 12 11 11 12 11 9 10 9 10 11 12 11 11 10 9 10 12 12 9 11 10 9
3 5 7 6 2 3 11 13 7 8 7 4 3 2 1 3 2 3 4 3 3 5 7 8 10 11 13 13 10 10 11 11 11 11 11 12 14 14 14 13 13 13 12 10 11 11 10 8 8 8 9 10 11 11 11 9 9 10 12 10 10 11 11
6 4 5 0 2 3 8 5 2 5 5 3 2 1 2 3 3 3 4 5 5 6 8 10 10 11 12 13 12 12 11 12 12 12 11 11 13 15 15 14 12 12 13 13 12 12 11 10 7 6 7 10 12 11 10 10 9 9 11 12 11 11 11
5 9 8 4 2 3 7 6 1 2 2 2 3 3 3 4 3 3 4 4 5 7 7 9 9 11 11 12 13 13 12 11 12 12 12 12 12 14 15 15 12 12 13 14 13 12 11 9 7 6 6 7 11 11 11 10 8 9 9 11 12 12 11
3 4 5 10 12 8 8 9 6 3 2 3 4 4 5 3 3 4 4 5 6 7 8 9 10 12 12 13 14 15 14 14 15 14 13 12 12 13 15 15 14 12 11 12 13 13 12 9 6 6 6 7 8 10 10 10 9 8 8 10 10 10 11
8 6 3 3 3 5 6 6 7 8 7 7 6 5 4 4 3 4 5 5 7 7 8 9 10 12 12 14 15 14 14 14 14 15 15 15 13 13 13 15 15 14 13 12 13 13 11 8 5 4 5 6 7 8 10 10 10 9 8 8 10 10 11
10 9 10 9 5 6 9 9 9 8 6 7 7 7 7 6 5 6 6 6 7 7 8 9 10 11 13 13 14 15 15 15 14 14 15 15 15 14 14 14 14 13 13 14 13 13 12 9 8 6 4 5 5 7 9 10 10 10 9 10 10 11 10
8 9 7 8 6 6 6 11 14 13 10 8 8 8 7 7 6 6 6 7 7 8 9 9 9 12 13 14 14 16 16 15 16 16 16 15 15 15 14 13 14 15 15 15 14 13 12 9 7 7 4 4 4 5 6 8 9 10 10 9 10 11 9
9 8 7 8 7 8 7 4 5 7 8 10 11 9 8 6 6 5 6 7 7 7 8 8 10 12 13 15 16 17 15 15 14 15 16 17 16 15 15 15 16 16 16 15 15 14 12 10 8 6 4 4 3 3 5 6 8 9 9 8 9 9 9
7 5 2 5 6 8 4 5 6 7 8 10 10 8 6 5 4 4 6 5 7 8 9 10 10 12 14 15 16 17 17 17 17 17 15 16 16 16 16 15 16 17 16 16 15 14 11 10 10 8 7 5 3 3 5 6 6 8 9 8 8 10 10
8 7 3 4 7 8 0 1 5 7 9 9 8 8 7 6 5 5 4 5 5 7 9 11 12 11 13 15 15 16 16 17 17 18 19 18 17 16 16 17 17 16 14 14 13 12 10 10 10 8 7 6 6 4 5 6 6 7 8 8 8 9 11
Wind_Direction
11 8 339 38 321 214 143 190 189 57 4 299 111 83 18 65 192 168 73 129 91 95 227 27 18 18 26 22 23 22 19 16 18 17 6 356 346 336 274 224 214 209 203 196 196 192 190 190 190 191 189 184 183 184 186 190 192 189 189 190 193 194 195
47 340 314 243 45 340 175 196 102 78 273 346 321 168 154 187 195 130 68 96 53 196 167 2 12 18 21 24 20 24 26 23 21 14 5 358 349 329 321 302 237 213 204 200 198 195 194 193 192 192 187 183 183 185 186 188 189 190 190 192 195 194 193
331 339 141 162 57 24 10 61 64 243 139 193 45 203 173 173 195 132 109 89 75 26 26 355 10 9 12 17 15 20 23 23 21 14 5 360 354 350 340 321 283 228 211 205 198 200 199 195 191 191 187 187 189 189 192 192 192 191 189 192 194 195 194
317 20 15 29 329 14 76 215 89 31 297 3 164 327 5 240 162 156 129 192 75 33 16 6 13 7 6 9 9 18 18 18 19 16 14 8 358 352 343 328 292 251 222 212 204 201 200 195 191 192 190 191 193 194 192 196 196 192 192 193 190 192 194
238 43 23 50 7 349 18 80 34 33 12 311 347 64 352 281 176 188 140 151 86 46 9 14 11 10 10 13 13 11 16 22 20 21 17 11 12 4 354 347 321 244 222 212 210 208 203 198 192 190 191 193 196 195 196 195 191 192 194 195 193 194 191
55 93 25 357 28 34 34 38 53 358 337 159 189 158 145 351 254 165 179 125 97 59 15 14 16 17 14 12 6 9 15 15 21 23 24 18 16 17 9 5 8 338 220 208 210 204 200 199 191 190 193 193 194 195 197 195 197 197 196 194 194 191 191
92 105 95 21 297 7 47 42 36 350 16 326 284 192 167 147 63 3 46 116 103 60 28 26 24 14 16 15 10 13 13 8 12 17 25 26 20 19 18 18 14 19 14 318 211 201 200 199 196 196 193 194 194 196 195 195 198 200 199 198 194 189 190
148 213 233 298 21 287 208 41 27 25 25 344 346 11 50 117 130 167 144 110 125 97 37 29 24 21 21 22 19 12 11 11 9 12 19 26 23 21 24 23 24 22 23 25 15 340 214 192 194 194 195 194 196 196 195 196 200 200 199 197 193 190 192
180 202 179 174 134 48 52 26 15 11 16 35 6 15 285 119 34 355 202 157 145 90 42 41 31 26 26 21 20 16 14 11 10 7 8 19 22 25 25 24 24 25 28 26 14 7 3 311 201 192 192 191 196 196 196 199 201 200 198 196 195 194 195
177 188 199 175 168 36 36 28 359 20 18 8 316 153 22 118 95 343 60 101 92 95 54 40 33 22 21 20 14 15 19 13 10 7 11 16 22 25 27 25 22 23 26 25 23 19 9 12 333 224 191 194 197 196 199 199 200 199 200 198 198 196 196
345 55 62 37 310 61 80 18 13 5 5 7 5 305 61 74 121 109 53 32 10 62 32 33 29 24 15 8 8 13 8 8 10 12 13 19 25 24 28 26 21 20 19 22 24 20 20 14 10 3 267 209 201 199 198 198 199 197 196 194 194 195 197
76 81 67 56 9 61 64 3 9 356 8 358 8 23 74 28 217 104 83 357 351 28 23 24 23 26 19 6 5 7 7 6 9 12 14 17 23 23 24 24 21 17 12 13 13 18 17 17 14 10 11 3 266 210 197 198 197 196 192 192 191 194 197
86 68 69 50 64 45 16 342 337 345 358 358 20 40 50 328 329 56 67 22 25 12 14 9 27 21 21 12 358 359 360 7 11 13 19 20 18 18 19 15 14 12 14 9 10 13 15 17 12 11 10 4 4 349 236 207 204 201 195 190 192 193 196
89 63 48 29 15 10 330 326 325 330 334 343 337 345 86 182 198 15 50 100 88 12 359 5 21 11 11 16 4 4 12 15 12 13 17 17 16 14 12 8 2 3 7 8 5 3 11 14 12 10 3 2 1 357 351 259 216 211 196 190 189 196 200
103 58 27 0 359 343 324 329 341 340 163 201 144 248 118 186 142 96 55 134 107 42 343 359 2 7 8 18 23 20 11 9 15 15 12 13 11 8 7 3 358 355 356 1 360 5 8 6 5 4 359 358 352 359 355 348 303 223 204 195 191 195 204
144 186 332 344 323 322 311 343 47 62 133 147 119 165 63 292 127 44 146 178 157 93 2 11 1 353 3 14 18 19 14 6 10 14 12 8 4 3 2 358 355 355 354 352 356 360 359 359 358 357 355 352 350 353 351 341 330 315 235 210 202 202 206
136 133 282 311 301 242 223 202 78 10 75 41 320 140 122 86 334 245 241 97 84 101 357 11 20 353 0 4 15 11 16 17 9 5 9 6 0 0 356 353 354 353 350 345 347 347 350 354 349 351 348 348 348 342 338 336 330 319 301 232 208 207 210
133 148 276 275 234 223 190 71 356 287 320 19 287 118 106 112 241 359 39 64 113 104 69 32 359 346 342 346 11 22 18 11 8 4 2 2 2 356 355 352 350 349 346 346 340 341 344 342 343 341 344 344 338 336 329 331 341 330 320 282 227 210 207
147 219 235 206 233 229 71 329 268 274 275 258 251 8 188 166 160 131 142 134 95 38 10 354 331 314 301 251 353 23 28 16 10 3 356 355 356 353 353 350 350 346 345 344 339 338 343 341 337 339 343 345 340 335 337 341 353 345 344 312 259 228 212
160 205 185 234 117 35 298 240 193 188 247 286 228 186 176 200 126 342 268 45 346 351 335 334 328 311 304 257 225 5 18 15 7 357 355 352 347 349 349 346 343 344 343 343 341 333 331 336 338 339 341 340 343 339 334 351 344 353 1 358 328 257 227
250 40 222 312 355 251 177 178 189 188 174 162 220 249 155 152 7 339 340 356 357 343 344 335 331 323 304 213 213 207 10 2 356 350 347 344 342 340 341 342 340 340 336 337 334 330 332 331 339 337 337 337 338 341 347 345 342 352 360 2 354 344 274
243 242 236 234 198 235 179 145 113 94 68 87 83 297 209 125 92 93 82 31 23 6 2 353 338 314 247 240 172 49 2 352 342 341 339 338 338 339 337 336 337 340 337 335 335 335 332 334 337 338 334 334 336 346 348 343 345 356 1 358 351 332 345
172 211 232 212 215 170 75 154 161 136 165 170 199 227 248 138 133 105 15 12 8 359 354 348 343 336 288 255 263 8 346 336 337 332 332 334 334 334 334 333 333 335 336 329 331 330 334 337 338 338 337 329 338 351 351 352 350 358 355 350 335 331 338
218 226 227 244 220 226 147 165 158 159 168 180 232 287 255 149 186 205 206 324 344 332 332 331 322 318 297 306 315 340 323 321 321 324 326 327 330 329 329 332 333 328 325 330 335 338 337 339 335 340 340 336 335 347 354 353 355 347 344 329 318 326 327
206 215 245 285 267 229 200 176 161 153 181 212 254 244 79 156 209 216 213 280 292 288 300 300 292 274 284 287 295 301 302 307 310 314 316 317 320 321 325 330 329 324 326 330 331 330 331 333 337 337 340 337 337 342 348 349 347 339 329 324 326 327 324
229 225 242 256 283 262 158 153 167 157 173 220 236 86 146 185 206 181 211 254 255 272 282 286 276 285 285 284 288 288 295 300 299 302 307 311 312 315 318 321 324 327 324 323 322 327 331 333 337 337 336 336 332 336 344 347 339 333 333 336 334 330 325
53 192 240 264 269 101 157 128 137 189 224 270 80 129 155 196 283 268 261 259 271 267 284 283 290 291 290 290 288 291 293 292 291 296 302 305 308 310 314 316 321 323 323 319 318 319 324 331 334 336 334 334 330 331 338 345 339 332 330 338 335 328 321
192 187 200 214 261 88 158 161 193 183 218 85 123 69 222 181 237 268 285 272 277 293 284 290 291 290 295 293 288 287 287 290 290 290 290 292 298 302 303 306 311 316 313 311 312 315 319 322 327 333 333 330 328 326 328 334 337 332 327 333 336 329 325
216 210 222 151 25 208 186 209 25 135 120 94 95 153 250 252 238 217 256 274 285 284 291 291 287 288 285 288 294 292 290 290 291 291 289 290 294 297 300 301 305 305 306 309 310 310 312 315 320 326 329 325 321 320 321 325 339 338 330 331 334 329 326
253 282 261 298 283 225 221 223 255 106 118 108 168 196 239 231 238 212 250 277 284 284 285 283 285 284 289 293 295 295 293 289 288 286 285 284 286 289 293 294 296 300 301 301 304 304 305 307 310 318 319 319 314 316 321 327 330 332 334 333 331 327 323
140 244 169 215 228 219 226 224 214 223 229 198 192 221 229 231 223 243 259 270 274 278 277 273 279 285 291 293 294 294 294 292 291 290 288 286 284 287 288 290 296 297 298 296 296 300 300 300 298 304 312 309 309 315 319 322 327 333 333 331 326 323 320
211 241 145 224 272 242 234 230 227 232 215 204 208 221 221 217 229 258 272 268 270 269 269 274 278 286 292 293 294 294 293 293 294 293 291 289 287 282 281 285 290 291 288 286 288 293 294 294 284 287 297 303 312 317 316 320 322 332 332 328 323 318 316
237 267 266 242 223 247 239 232 237 232 203 193 198 200 202 210 232 247 250 252 263 267 275 280 283 288 290 290 292 292 292 292 292 292 291 289 286 285 284 285 286 285 286 285 286 285 286 287 287 284 274 293 309 313 315 320 326 325 319 321 319 312 311
229 233 229 179 226 255 215 212 223 223 213 202 190 184 198 208 227 238 260 266 259 266 276 281 287 291 294 293 293 292 293 291 291 290 289 286 284 284 283 282 281 282 280 280 281 280 279 280 276 278 266 276 290 307 317 321 321 317 319 320 317 311 311
233 223 210 181 226 262 263 226 179 185 168 176 178 188 198 206 217 236 257 272 287 285 284 288 292 294 294 295 295 293 292 292 291 290 288 286 283 280 283 284 281 278 280 281 280 278 278 276 269 261 261 271 276 296 313 314 314 308 311 311 306 304 310
260 299 249 179 199 240 240 191 180 170 169 175 184 188 193 203 215 227 247 265 287 297 303 297 294 293 296 296 296 293 292 291 291 289 286 283 280 278 277 276 276 278 278 279 279 278 276 272 272 268 272 269 265 281 301 309 309 303 301 300 300 305 307
249 274 324 213 228 244 67 149 183 173 171 179 184 189 190 198 210 223 250 278 282 302 304 303 302 300 300 300 296 293 292 292 291 289 287 285 281 277 274 273 274 275 274 277 278 278 273 273 270 268 270 271 277 285 298 304 301 292 293 295 297 298 297